SB KEPS @ AMSAT $ORB26104.1 2Line Orbital Elements 26104.AMSAT QST de W1STR AMSAT Orbital Elements for Amateur Satellites in TLE Format From Orbital Analysis Office New England Sci-Tech STEM Education Center Natick MA April 14, 2026 To all radio amateurs These element sets describe the orbits of various satellites in use by the amateur radio community. For details see: www.amsat.org/keplerian-elements-formats/ A daily update of element sets is available at: www.amsat.org/tle/daily-bulletin.txt or without bulletin text: www.amsat.org/tle/dailytle.txt AO-07 1 07530U 74089B 26103.25623326 -.00000027 00000-0 11918-3 0 9997 2 07530 101.9944 115.8181 0011879 254.5202 116.6671 12.53697038352389 UO-11 1 14781U 84021B 26103.17839903 .00001040 00000-0 11182-3 0 9999 2 14781 97.8005 69.5094 0008737 47.1763 313.0188 14.90627916247448 AO-27 1 22825U 93061C 26103.11009073 .00000052 00000-0 37014-4 0 9997 2 22825 98.6920 170.5347 0007290 294.3660 65.6762 14.30924681697697 FO-29 1 24278U 96046B 26103.02547655 -.00000020 00000-0 18970-4 0 9996 2 24278 98.5323 320.7915 0348801 265.5285 90.5938 13.53271053464355 GO-32 1 25397U 98043D 26103.22981172 .00000045 00000-0 39494-4 0 9996 2 25397 99.0056 94.3573 0002172 64.3026 295.8376 14.24415530442088 ISS 1 25544U 98067A 26103.16688155 .00004867 00000-0 96801-4 0 9995 2 25544 51.6321 261.8843 0006463 306.5385 53.5008 15.48891757561672 NO-44 1 26931U 01043C 26103.27235909 .00000095 00000-0 66340-4 0 9995 2 26931 67.0513 52.1669 0006698 264.3866 95.6472 14.31930561281151 SO-50 1 27607U 02058C 26103.01246672 .00000569 00000-0 85208-4 0 9994 2 27607 64.5530 330.6131 0075512 274.3272 84.9208 14.82905711254797 CO-55 1 27844U 03031E 26103.26762175 .00000227 00000-0 11722-3 0 9997 2 27844 98.6766 112.6384 0009920 21.3274 338.8316 14.24295149182434 RS-22 1 27939U 03042A 26103.30168001 .00000923 00000-0 15067-3 0 9996 2 27939 98.3469 285.8323 0012435 112.1039 12.7152 14.73351732205993 CO-65 1 32785U 08021C 26103.20380132 .00003107 00000-0 20150-3 0 9999 2 32785 97.8245 83.3182 0007193 244.7475 115.3007 15.08846783975390 CO-66 1 32791U 08021J 26103.26026417 .00011179 00000-0 38067-3 0 9999 2 32791 97.7527 98.1760 0003996 141.7490 218.4034 15.30577149977350 RS-30 1 32953U 08025A 26103.23309635 .00000024 00000-0 10172-3 0 9990 2 32953 82.5060 35.8352 0020577 92.0140 268.3297 12.43177624811620 SRMSAT 1 37841U 11058D 26103.26999819 .00000371 00000-0 57343-4 0 9990 2 37841 19.9714 92.3945 0011685 208.7613 282.1490 14.11560002748630 ZACUBE-1 1 39417U 13066B 26103.14037820 .00002615 00000-0 20727-3 0 9992 2 39417 97.8125 65.1326 0045009 108.7172 251.8944 15.00659625670976 Delfi-N3xt 1 39428U 13066N 26103.24126609 .00004598 00000-0 40956-3 0 9997 2 39428 97.8338 23.6528 0077260 63.3757 297.5351 14.94241694664928 GOMX-1 1 39430U 13066Q 26103.28663591 .00001227 00000-0 19194-3 0 9996 2 39430 97.6542 307.8321 0127677 286.2295 72.4896 14.69230447660381 LO-74 1 39440U 13066AA 26103.27656187 .00002611 00000-0 24734-3 0 9993 2 39440 97.8857 52.0251 0056466 241.8900 117.6606 14.93329152667300 AO-73 1 39444U 13066AE 26102.67584861 .00005899 00000-0 37539-3 0 9997 2 39444 97.8222 72.8193 0038673 67.9052 292.6275 15.08561186669782 DTUSAT-2 1 40030U 14033W 26103.22861890 .00004408 00000-0 24550-3 0 9991 2 40030 98.0868 96.8812 0009913 96.3466 263.8893 15.14162491642856 LILACSAT-2 1 40908U 15049K 26103.27668726 .00010734 00000-0 19740-3 0 9995 2 40908 97.4750 137.7239 0008796 122.3909 237.8194 15.49354745585697 Horyu-4 1 41340U 16012D 26102.93655032 .00086235 00000-0 66664-3 0 9991 2 41340 30.9893 187.2038 0006122 114.9671 245.1620 15.70473170560483 Lapan A3 1 41603U 16040E 26103.23883500 .00002666 00000-0 86770-4 0 9998 2 41603 97.1491 101.5428 0008558 243.6699 116.3666 15.32686073544860 CAS-2T 1 41847U 16066G 26103.20125754 .00000423 00000-0 69398-4 0 9999 2 41847 98.3841 179.6681 0341572 326.9125 31.1102 14.44553007495411 TechnoSat 1 42829U 17042E 26103.01459592 .00001419 00000-0 10510-3 0 9991 2 42829 97.4199 263.1993 0016732 320.2735 39.7265 15.04562994476903 AO-91 1 43017U 17073E 26103.09233008 .00005112 00000-0 22991-3 0 9995 2 43017 97.4811 331.6682 0153278 192.5824 167.1564 15.11579058455559 S-Net D 1 43186U 18014G 26103.19833279 .00003085 00000-0 16374-3 0 9990 2 43186 97.5410 8.4100 0006689 237.0036 123.0554 15.16075070448911 S-Net B 1 43187U 18014H 26103.14252036 .00003401 00000-0 18027-3 0 9991 2 43187 97.5413 8.3391 0007447 232.4187 127.6370 15.16045347448904 S-Net A 1 43188U 18014J 26103.19751820 .00003022 00000-0 16045-3 0 9999 2 43188 97.5422 8.5905 0007305 232.9399 127.1167 15.16081806448911 S-Net C 1 43189U 18014K 26103.21203809 .00003336 00000-0 17693-3 0 9990 2 43189 97.5442 8.6698 0008878 225.6152 134.4354 15.16037485447468 Ten-Koh 1 43677U 18084G 26103.27095190 .00002138 00000-0 16518-3 0 9991 2 43677 98.0788 292.9041 0009224 339.4078 20.6773 15.02664416406412 PO-101 1 43678U 18084H 26103.27568031 .00001543 00000-0 12863-3 0 9999 2 43678 98.1052 296.7358 0013919 26.0882 334.1039 15.00142063406481 QO-100 1 43700U 18090A 26103.09440052 .00000147 00000-0 00000-0 0 9990 2 43700 0.0236 108.6629 0001205 292.3879 220.0063 1.00271310 27026 MinXSS-2 1 43758U 18099A 26103.18426758 .00019621 00000-0 44846-3 0 9995 2 43758 97.4571 177.7699 0009204 139.2716 220.9221 15.42836139404099 AO-95 1 43770U 18099N 26103.09428152 .00007126 00000-0 28531-3 0 9999 2 43770 97.4447 163.6337 0008461 207.3458 152.7336 15.25338196403293 SNUSat 2 1 43782U 18099AA 26103.08516308 .00005531 00000-0 25322-3 0 9995 2 43782 97.4130 157.4978 0011336 156.7809 203.3941 15.20850286403131 SnugLite 1 43784U 18099AC 26103.11426548 .00007178 00000-0 28370-3 0 9992 2 43784 97.3940 158.0843 0004081 140.0823 220.0716 15.25787517403395 ITASat 1 1 43786U 18099AE 26103.11880897 .00003808 00000-0 18900-3 0 9999 2 43786 97.4102 155.9484 0011995 212.8398 147.2092 15.18237026403037 EAGLET 1 1 43790U 18099AJ 26103.09372270 .00002986 00000-0 17525-3 0 9990 2 43790 97.4302 154.4887 0010697 203.2478 156.8270 15.12449838402499 ESEO 1 43792U 18099AL 26103.05238038 .00001627 00000-0 12166-3 0 9998 2 43792 97.4049 143.2153 0011922 189.1300 170.9712 15.04052303402013 JO-97 1 43803U 18099AX 26103.13113742 .00010787 00000-0 35520-3 0 9990 2 43803 97.4189 165.8258 0007219 135.6506 224.5315 15.31643271403662 Suomi 100 1 43804U 18099AY 26103.16282425 .00006964 00000-0 26524-3 0 9995 2 43804 97.4251 163.8532 0011407 144.9243 215.2749 15.26984235403492 ISAT 1 43879U 18111D 26103.25056307 .00041094 00000-0 59276-3 0 9993 2 43879 97.5900 34.0085 0007367 143.6802 216.4954 15.55855974401044 UWE-4 1 43880U 18111E 26103.21647385 .00017269 00000-0 40157-3 0 9998 2 43880 97.5851 28.8202 0008154 179.2687 180.8573 15.42359672400752 Sparrow 1 43881U 18111F 26102.78763923 .00063461 00000-0 75980-3 0 9994 2 43881 97.6112 38.2346 0004660 149.6071 210.5456 15.60754415401132 Prox-1 1 44339U 19036A 26103.28982456 .00006712 00000-0 66555-3 0 9994 2 44339 23.9945 187.2256 0006458 11.0974 348.9667 14.89096205363787 Taurus 1 1 44530U 19059C 26103.31467812 .00003991 00000-0 65325-3 0 9990 2 44530 98.6355 264.1745 0009651 151.7133 208.4598 14.71379450349109 TO-108 1 44881U 19093C 26103.28756358 .00000769 00000-0 93043-4 0 9998 2 44881 97.7558 177.0976 0012353 304.4392 55.5655 14.86416518341771 RS-44 1 44909U 19096E 26103.19313432 -.00000002 00000-0 -44985-4 0 9997 2 44909 82.5262 22.8909 0216496 296.5275 61.3775 12.79747954294039 SALSAT 1 46495U 20068K 26103.23814057 .00004806 00000-0 17417-3 0 9997 2 46495 97.8864 102.3992 0010498 160.5459 199.6182 15.28852865305431 CSS (TIANHE-1) 1 48274U 21035A 26103.18800187 .00017774 00000-0 19849-3 0 9991 2 48274 41.4686 357.9812 0005208 197.9259 162.1398 15.62338137283000 CUTE 1 49263U 21088D 26103.23675216 .00052843 00000-0 39304-3 0 9991 2 49263 97.4206 197.5071 0003453 199.2582 160.8551 15.72666712252294 TeikyoSat 4 1 49396U 21102B 26103.01995608 .00001451 00000-0 94788-4 0 9998 2 49396 97.3739 135.0266 0012913 150.8909 209.3043 15.09279094242894 Z-Sat 1 49399U 21102E 26103.26894698 .00002420 00000-0 12258-3 0 9993 2 49399 97.3405 140.5645 0018500 111.8764 248.4440 15.17772522243599 KOSEN 1 1 49402U 21102H 26103.04351970 .00004969 00000-0 19570-3 0 9999 2 49402 97.3266 146.4864 0015592 80.5434 279.7566 15.25949886244080 HO-113 1 50466U 21131B 26103.28504058 .00000355 00000-0 12333-3 0 9991 2 50466 98.4943 196.0389 0002961 302.1699 57.9203 14.41295256225761 SNUGLITE 2 1 52899U 22065F 26103.31923245 .00000717 00000-0 14528-3 0 9997 2 52899 98.2102 248.3030 0006715 219.5846 140.4867 14.64223913201504 UmKA 1 (RS40S) 1 57172U 23091G 26103.26856009 .00003416 00000-0 16109-3 0 9999 2 57172 97.5115 162.2323 0012426 353.4476 6.6594 15.20107184154142 CubeBel-2 (EU11S) 1 57175U 23091K 26103.23651679 .00007645 00000-0 28503-3 0 9994 2 57175 97.5110 165.9330 0009409 353.2377 6.8733 15.27680579154387 RS-38S 1 57189U 23091Z 26103.28377169 .00009104 00000-0 27860-3 0 9990 2 57189 97.5139 171.5589 0006020 305.3374 54.7305 15.34053926154737 SONATE-2 1 59112U 24043Q 26103.20064799 .00025361 00000-0 38941-3 0 9995 2 59112 97.5449 249.8789 0007460 84.9839 275.2265 15.54238593117781 GRBBeta 1 60237U 24128C 26103.23392140 .00002409 00000-0 17457-3 0 9993 2 60237 61.9885 84.0612 0048242 120.9799 239.6046 15.06127561 96486 Curium One 1 60242U 24128H 26103.29303539 .00004642 00000-0 27863-3 0 9992 2 60242 61.9779 75.4318 0047942 117.1837 243.4157 15.11497308 96647 ROBUSTA-3A 1 60243U 24128J 26103.22239962 .00004039 00000-0 24950-3 0 9998 2 60243 61.9860 77.8013 0048958 114.7138 245.9064 15.10681051 96601 CatSat 1 60246U 24125J 26103.02333060 .00032538 00000-0 52848-3 0 9992 2 60246 97.2174 314.9892 0025762 66.5344 293.8613 15.52270149 97268 HYPERVIEW-1G (RS66S) 1 61772U 24199AP 26103.25368157 .00050622 00000-0 54824-3 0 9998 2 61772 97.3015 340.3444 0009049 143.0934 217.0949 15.63368961124498 AO-123 1 61781U 24199AY 26103.24469013 .00004992 00000-0 15021-3 0 9995 2 61781 97.3102 332.5129 0014232 174.7855 185.3539 15.34735944123961 JINJUSat 1B 1 63210U 25052A 26103.24136057 .00009356 00000-0 30961-3 0 9991 2 63210 97.4081 359.9862 0002383 356.3003 3.8221 15.31544296 60159 NUSHSAT 1 1 63211U 25052B 26102.66104735 .00013498 00000-0 41865-3 0 9992 2 63211 97.4053 359.7713 0002444 7.0626 353.0650 15.33525277 60090 TEVEL2-4 1 63213U 25052D 26102.14379088 .00014476 00000-0 46496-3 0 9994 2 63213 97.3976 358.5171 0002817 33.2261 326.9157 15.32390087 59996 TEVEL2-5 1 63214U 25052E 26102.61473013 .00011472 00000-0 37064-3 0 9994 2 63214 97.3973 358.9527 0002717 31.1743 328.9660 15.32259496 60063 TEVEL2-6 1 63215U 25052F 26103.14790279 .00010370 00000-0 33560-3 0 9993 2 63215 97.3969 359.4703 0002800 29.4980 330.6419 15.32230603 60147 TEVEL2-1 1 63217U 25052H 26103.22135919 .00009903 00000-0 32520-3 0 9993 2 63217 97.3951 359.2407 0003292 37.6089 322.5382 15.31772235 60146 TEVEL2-3 1 63218U 25052J 26103.21805767 .00010034 00000-0 32904-3 0 9991 2 63218 97.3952 359.2524 0003362 37.4192 322.7284 15.31814796 60141 TEVEL2-2 1 63219U 25052K 26103.22194160 .00009830 00000-0 32279-3 0 9998 2 63219 97.3950 359.2427 0003326 37.6568 322.4906 15.31776622 60144 TEVEL2-9 1 63237U 25052AD 26102.98848303 .00010761 00000-0 37321-3 0 9993 2 63237 97.4016 358.5168 0007056 31.2023 328.9635 15.29961322 60052 TEVEL2-7 1 63238U 25052AE 26103.21420618 .00009018 00000-0 31559-3 0 9996 2 63238 97.4019 358.6826 0007171 30.3699 329.7955 15.29718282 60087 TEVEL2-8 1 63239U 25052AF 26103.22170306 .00008910 00000-0 31205-3 0 9992 2 63239 97.4017 358.6694 0007171 31.1859 328.9805 15.29698461 60087 HYDRA-W 1 63490U 25052BL 26103.23843731 .00549823 11709-3 19038-2 0 9994 2 63490 97.3789 6.5098 0005553 136.7318 223.4392 15.89443605 60626 HADES-ICM (SO-125) 1 63492U 25052BN 26102.69507884 .00185348 00000-0 14856-2 0 9991 2 63492 97.3858 4.6786 0004582 78.9999 281.1779 15.70457439 60452 SPIRONE 1 66657U 25274H 26102.32446873 .00001277 00000-0 12734-3 0 9995 2 66657 97.7451 32.5802 0010912 229.3207 130.7065 14.93279896 20397 K-HERO 1 66660U 25274L 26103.21870720 .00001818 00000-0 17694-3 0 9991 2 66660 97.7463 33.5731 0012636 230.5818 129.4284 14.93720772 20531 SNUGLITE-III DURI 1 66661U 25274M 26103.07484613 .00001502 00000-0 14683-3 0 9993 2 66661 97.7464 33.4495 0013319 232.8575 127.1429 14.93786452 20514 SilverSat 1 66909U 98067XV 26101.44198092 .00588813 15493-3 14302-2 0 9997 2 66909 51.6155 254.7584 0011918 300.1845 59.7981 15.95566356 20373 SAKHACUBE-CHOLBON 1 67290U 25313AU 26102.70975902 .00006133 00000-0 25815-3 0 9995 2 67290 97.3961 178.6164 0008767 218.2535 141.8082 15.23704209 16002 RS95S (QMR-KWT-2) 1 67291U 25313AV 26103.14063259 .00008868 00000-0 36191-3 0 9994 2 67291 97.3960 179.1067 0008688 214.9600 145.1068 15.24616530 16076 Ten-Koh2 1 68261U 25241B 26102.94317612 .00005726 00000-0 25358-3 0 9997 2 68261 51.6417 270.0027 0004946 286.6985 73.3450 15.23054096 4960 IO-86 1 40931U 25360.30710720 .00000000 00000-0 12800-3 0 00 2 40931 6.0006 332.5373 0012733 338.8432 8.1437 14.79075515 01 HADES-SA/SpinnyONE 1 71958C 26067D 26089.49758863 -.00009989 00000+0 -51655-3 0 00 2 71958 97.4320 49.1630 0007687 13.6276 327.6456 15.16316797 13 LILIUM-4 1 71922C 26067AC 26089.50133053 -.00014632 00000+0 -74472-3 0 04 2 71922 97.4497 49.1617 0004341 5.9603 355.7042 15.16896692 16 PARUS-6U1 1 71919C 26067Q 26089.49893470 -.00013781 00000+0 -70600-3 0 07 2 71919 97.4488 49.1589 0005235 359.3198 349.2677 15.16662579 15 JACK-002 1 71927C 26067C 26089.49750414 -.00013014 00000+0 -63498-3 0 02 2 71927 97.4500 49.1567 0002681 143.8886 196.8842 15.18377566 18 SAL-E 1 71904C 26067L 26089.49846595 -.00007742 00000+0 -39877-3 0 08 2 71904 97.4412 49.1602 0006442 8.2554 337.7892 15.16462720 16 DISCO-2 1 71908C 26067U 26089.49955160 -.00011726 00000+0 -58129-3 0 09 2 71908 97.4541 49.1588 0000289 282.0588 69.8834 15.17826845 10 /EX